McNeal, AZ

3:30 AM MST on February 12, 2016 (GMT -0700)
Bisbee Douglas International

Weather History for KDUG - May, 2013

Change the Weather History Date:

Wednesday, May 1, 2013

  Actual Average Record
Temperature  
Mean Temperature 70 °F 66 °F  
Max Temperature 87 °F 84 °F 94 °F (1992)
Min Temperature 53 °F 48 °F 30 °F (1967)
Degree Days  
Heating Degree Days 0 2  
Month to date heating degree days 0 2  
Since 1 July heating degree days 2557 2503  
Cooling Degree Days 5 3  
Month to date cooling degree days 5 3  
Year to date cooling degree days 34 33  
Growing Degree Days 20 (Base 50)    
Moisture  
Dew Point 15 °F    
Average Humidity 16    
Maximum Humidity 26    
Minimum Humidity 6    
Precipitation  
Precipitation 0.00 in 0.01 in 0.11 in (1978)
Month to date precipitation 0.00 0.01  
Year to date precipitation 0.87 2.13  
Snow  
Snow 0.00 in - - ()
Month to date snowfall 0.0  
Snow Depth 0.00 in    
Sea Level Pressure  
Sea Level Pressure 29.87 in    
Wind  
Wind Speed 9 mph (WSW)    
Max Wind Speed 21 mph    
Max Gust Speed 29 mph    
Visibility 10 miles    
Events      
T = Trace of Precipitation, MM = Missing Value Source: NWS Daily Summary

Daily Weather History Graph

Daily Weather History Graph

Search for Another Location

Airport or City:

Trip Planner

Search our weather history database for the weather conditions in past years. The results will help you decide how hot, cold, wet, or windy it might be!

Date:

Astronomy

May. 01, 2013 Rise Set
Actual Time 5:33 AM MST 6:58 PM MST
Civil Twilight 5:07 AM MST 7:24 PM MST
Nautical Twilight 4:36 AM MST 7:55 PM MST
Astronomical Twilight 4:04 AM MST 8:27 PM MST
Moon 12:09 AM MST (5/1) 11:14 AM MST (5/1)
Length of Visible Light 14h 16m
Length of Day
13h 25m
Waning Gibbous, 58% of the Moon is Illuminated
May 1
Waning Gibbous
May 2
Last Quarter
May 9
New
May 17
First Quarter
May 24
Full

Hourly Weather History & Observations

Time (MST) Temp. Dew Point Humidity Pressure Visibility Wind Dir Wind Speed Gust Speed Precip Events Conditions
12:56 AM 63.0 °F 21.0 °F 20% 29.76 in 10.0 mi SSW 6.9 mph - N/A   Clear
1:56 AM 63.0 °F 21.0 °F 20% 29.76 in 10.0 mi SW 3.5 mph - N/A   Clear
2:56 AM 57.9 °F 19.9 °F 23% 29.78 in 10.0 mi WSW 5.8 mph - N/A   Clear
3:56 AM 59.0 °F 19.9 °F 22% 29.79 in 10.0 mi SSW 6.9 mph - N/A   Clear
4:56 AM 57.0 °F 19.0 °F 23% 29.81 in 10.0 mi SSE 5.8 mph - N/A   Clear
5:56 AM 53.6 °F 19.4 °F 26% 30.02 in 10.0 mi SE 4.6 mph - N/A   Clear
6:56 AM 63.0 °F 21.0 °F 20% 29.86 in 10.0 mi Calm Calm - N/A   Clear
7:56 AM 69.1 °F 21.0 °F 16% 29.87 in 10.0 mi South 5.8 mph - N/A   Clear
8:56 AM 72.0 °F 21.9 °F 15% 29.88 in 10.0 mi South 12.7 mph 17.3 mph N/A   Clear
9:56 AM 75.0 °F 21.0 °F 13% 29.88 in 10.0 mi South 8.1 mph - N/A   Clear
10:56 AM 78.8 °F 15.8 °F 9% 30.05 in 10.0 mi WSW 11.5 mph 23.0 mph N/A   Clear
11:56 AM 81.0 °F 16.0 °F 9% 29.85 in 10.0 mi West 8.1 mph - N/A   Clear
12:56 PM 82.0 °F 14.0 °F 8% 29.84 in 10.0 mi West 15.0 mph 18.4 mph N/A   Clear
1:56 PM 82.9 °F 14.0 °F 8% 29.83 in 10.0 mi West 12.7 mph - N/A   Clear
2:56 PM 84.0 °F 10.9 °F 6% 29.83 in 10.0 mi Variable 5.8 mph 18.4 mph N/A   Clear
3:56 PM 86.0 °F 12.2 °F 6% 30.00 in 10.0 mi NW 11.5 mph 20.7 mph N/A   Clear
4:56 PM 84.9 °F 12.9 °F 7% 29.81 in 10.0 mi West 10.4 mph - N/A   Clear
5:56 PM 84.0 °F 10.0 °F 6% 29.83 in 10.0 mi WNW 11.5 mph - N/A   Clear
6:56 PM 79.0 °F 12.9 °F 8% 29.84 in 10.0 mi NNW 12.7 mph - N/A   Clear
7:56 PM 73.0 °F 10.9 °F 9% 29.87 in 10.0 mi NNW 11.5 mph - N/A   Clear
8:56 PM 66.0 °F 10.0 °F 11% 29.91 in 10.0 mi NNW 9.2 mph - N/A   Clear
9:56 PM 66.0 °F 9.0 °F 11% 29.91 in 10.0 mi NW 11.5 mph - N/A   Clear
10:56 PM 63.0 °F 9.0 °F 12% 29.93 in 10.0 mi North 12.7 mph - N/A   Clear
11:56 PM 62.1 °F 9.0 °F 12% 29.93 in 10.0 mi North 11.5 mph - N/A   Clear